QPF
0.00 0.00 0.00 0.00 0.00 0.00 0.00 0.00 0.00 0.00 0.00 0.00 0.00 0.00 0.00 0.00 0.00 0.00 0.01 0.01 0.01 0.00 0.00 0.00 0.02 0.03 0.00 0.00 0.00 0.00 0.00 0.00 0.00 0.00 0.00 0.00 0.00 0.00 0.00 0.00 0.00 0.00 0.00 0.00 0.00
0.00 0.00 0.00 0.00 0.00 0.00 0.00 0.00 0.00 0.00 0.00 0.00 0.00 0.00 0.00 0.00 0.01 0.00 0.00 0.01 0.03 0.01 0.00 0.00 0.00 0.03 0.01 0.01 0.00 0.00 0.00 0.00 0.00 0.00 0.00 0.00 0.00 0.00 0.00 0.00 0.00 0.00 0.00 0.00 0.00
0.00 0.00 0.00 0.00 0.00 0.00 0.00 0.00 0.00 0.00 0.00 0.00 0.00 0.00 0.00 0.02 0.02 0.00 0.00 0.00 0.04 0.02 0.00 0.00 0.00 0.00 0.01 0.01 0.00 0.00 0.00 0.00 0.00 0.00 0.00 0.00 0.00 0.00 0.00 0.00 0.00 0.00 0.00 0.00 0.00
0.00 0.00 0.00 0.00 0.00 0.00 0.00 0.00 0.00 0.00 0.00 0.00 0.00 0.00 0.01 0.06 0.03 0.01 0.00 0.01 0.04 0.03 0.02 0.00 0.01 0.02 0.00 0.00 0.00 0.00 0.00 0.00 0.00 0.00 0.00 0.00 0.00 0.00 0.00 0.00 0.00 0.00 0.00 0.00 0.00
0.00 0.00 0.00 0.00 0.00 0.00 0.00 0.00 0.00 0.00 0.00 0.01 0.01 0.00 0.04 0.04 0.01 0.00 0.01 0.03 0.06 0.05 0.02 0.00 0.01 0.01 0.01 0.00 0.00 0.00 0.00 0.00 0.00 0.00 0.00 0.00 0.00 0.00 0.00 0.00 0.00 0.00 0.00 0.00 0.00
0.00 0.00 0.00 0.00 0.00 0.00 0.00 0.00 0.00 0.00 0.01 0.02 0.02 0.02 0.08 0.02 0.00 0.00 0.02 0.05 0.06 0.06 0.03 0.01 0.00 0.00 0.01 0.00 0.00 0.00 0.00 0.00 0.00 0.00 0.00 0.00 0.00 0.00 0.00 0.00 0.00 0.00 0.00 0.00 0.00
0.00 0.00 0.00 0.00 0.00 0.00 0.00 0.00 0.00 0.00 0.01 0.03 0.03 0.04 0.06 0.01 0.00 0.00 0.02 0.04 0.06 0.05 0.03 0.00 0.00 0.01 0.00 0.00 0.00 0.00 0.00 0.00 0.00 0.00 0.00 0.00 0.00 0.00 0.00 0.00 0.00 0.00 0.00 0.00 0.00
0.00 0.00 0.00 0.00 0.00 0.00 0.00 0.00 0.00 0.00 0.03 0.06 0.06 0.04 0.03 0.00 0.01 0.01 0.03 0.05 0.06 0.06 0.03 0.01 0.00 0.00 0.00 0.00 0.00 0.00 0.00 0.00 0.00 0.00 0.00 0.00 0.00 0.00 0.00 0.00 0.00 0.00 0.00 0.00 0.00
0.00 0.00 0.00 0.00 0.00 0.00 0.00 0.00 0.00 0.01 0.08 0.09 0.05 0.03 0.03 0.04 0.02 0.00 0.05 0.06 0.06 0.05 0.02 0.00 0.00 0.00 0.00 0.00 0.00 0.00 0.00 0.00 0.00 0.00 0.00 0.00 0.00 0.00 0.00 0.00 0.00 0.00 0.00 0.00 0.00
0.00 0.00 0.00 0.00 0.00 0.00 0.00 0.00 0.00 0.00 0.02 0.03 0.04 0.03 0.00 0.00 0.01 0.00 0.05 0.07 0.03 0.03 0.02 0.00 0.00 0.00 0.00 0.00 0.00 0.00 0.00 0.00 0.00 0.00 0.00 0.00 0.00 0.00 0.00 0.00 0.00 0.00 0.00 0.00 0.00
0.00 0.00 0.00 0.00 0.00 0.00 0.00 0.00 0.00 0.00 0.00 0.01 0.00 0.00 0.01 0.03 0.05 0.03 0.06 0.04 0.02 0.03 0.01 0.00 0.00 0.00 0.00 0.00 0.00 0.00 0.00 0.00 0.00 0.00 0.00 0.00 0.00 0.00 0.00 0.00 0.00 0.00 0.00 0.00 0.00
0.00 0.00 0.00 0.00 0.00 0.00 0.01 0.01 0.00 0.00 0.00 0.00 0.00 0.00 0.01 0.08 0.05 0.06 0.09 0.05 0.02 0.01 0.00 0.00 0.00 0.00 0.00 0.00 0.00 0.00 0.00 0.00 0.00 0.00 0.00 0.00 0.00 0.00 0.00 0.00 0.00 0.00 0.00 0.00 0.00
0.00 0.00 0.00 0.00 0.00 0.00 0.01 0.02 0.00 0.00 0.00 0.00 0.00 0.02 0.03 0.03 0.02 0.03 0.03 0.02 0.01 0.00 0.00 0.00 0.00 0.00 0.00 0.00 0.00 0.00 0.00 0.00 0.00 0.00 0.00 0.00 0.00 0.00 0.00 0.00 0.00 0.00 0.00 0.00 0.00
0.00 0.00 0.00 0.00 0.00 0.00 0.03 0.02 0.01 0.02 0.00 0.00 0.00 0.00 0.01 0.04 0.01 0.01 0.01 0.00 0.00 0.00 0.00 0.00 0.00 0.00 0.00 0.00 0.00 0.00 0.00 0.00 0.00 0.00 0.00 0.00 0.00 0.00 0.00 0.00 0.00 0.00 0.00 0.00 0.00
0.00 0.00 0.00 0.00 0.00 0.02 0.01 0.00 0.00 0.01 0.00 0.00 0.00 0.00 0.00 0.01 0.00 0.00 0.00 0.00 0.00 0.00 0.00 0.00 0.00 0.00 0.00 0.00 0.00 0.00 0.00 0.00 0.00 0.00 0.00 0.00 0.00 0.00 0.00 0.00 0.00 0.00 0.00 0.00 0.00
0.00 0.00 0.00 0.00 0.01 0.01 0.00 0.00 0.00 0.01 0.00 0.00 0.00 0.00 0.01 0.00 0.01 0.00 0.00 0.00 0.00 0.00 0.00 0.00 0.00 0.00 0.00 0.00 0.00 0.00 0.00 0.00 0.00 0.00 0.00 0.00 0.00 0.00 0.00 0.00 0.00 0.00 0.00 0.00 0.00
0.00 0.00 0.00 0.00 0.00 0.00 0.00 0.00 0.00 0.00 0.00 0.00 0.00 0.00 0.00 0.00 0.00 0.00 0.00 0.00 0.00 0.00 0.00 0.00 0.00 0.00 0.00 0.00 0.00 0.00 0.00 0.00 0.00 0.00 0.00 0.00 0.00 0.00 0.00 0.00 0.00 0.00 0.00 0.00 0.00
0.00 0.00 0.00 0.00 0.00 0.00 0.00 0.00 0.00 0.00 0.00 0.00 0.00 0.00 0.00 0.00 0.00 0.00 0.00 0.00 0.00 0.00 0.00 0.00 0.00 0.00 0.00 0.00 0.00 0.00 0.00 0.00 0.00 0.00 0.00 0.00 0.00 0.00 0.00 0.00 0.00 0.00 0.00 0.00 0.00
0.00 0.00 0.00 0.00 0.00 0.00 0.00 0.00 0.00 0.00 0.00 0.00 0.00 0.00 0.00 0.00 0.00 0.00 0.00 0.00 0.00 0.00 0.00 0.00 0.00 0.00 0.00 0.00 0.00 0.00 0.00 0.00 0.00 0.00 0.00 0.00 0.00 0.00 0.00 0.00 0.00 0.00 0.00 0.00 0.00
0.00 0.00 0.00 0.00 0.00 0.00 0.00 0.00 0.00 0.00 0.00 0.00 0.00 0.00 0.00 0.00 0.00 0.00 0.00 0.00 0.00 0.00 0.00 0.00 0.00 0.00 0.00 0.00 0.00 0.00 0.00 0.00 0.00 0.00 0.00 0.00 0.00 0.00 0.00 0.00 0.00 0.00 0.00 0.00 0.00
0.00 0.00 0.00 0.00 0.00 0.00 0.00 0.00 0.00 0.00 0.00 0.00 0.00 0.00 0.00 0.00 0.00 0.00 0.00 0.00 0.00 0.00 0.00 0.00 0.00 0.00 0.00 0.00 0.00 0.00 0.00 0.00 0.00 0.00 0.00 0.00 0.00 0.00 0.00 0.00 0.00 0.00 0.00 0.00 0.00
0.00 0.00 0.00 0.00 0.00 0.00 0.00 0.00 0.00 0.00 0.00 0.00 0.00 0.00 0.00 0.00 0.00 0.00 0.00 0.00 0.00 0.00 0.00 0.00 0.00 0.00 0.00 0.00 0.00 0.00 0.00 0.00 0.00 0.00 0.00 0.00 0.00 0.00 0.00 0.00 0.00 0.00 0.00 0.00 0.00
0.00 0.00 0.00 0.00 0.00 0.00 0.00 0.00 0.00 0.00 0.00 0.00 0.00 0.00 0.00 0.00 0.00 0.00 0.00 0.00 0.00 0.00 0.00 0.00 0.00 0.00 0.00 0.00 0.00 0.00 0.00 0.00 0.00 0.00 0.00 0.00 0.00 0.00 0.00 0.00 0.00 0.00 0.00 0.00 0.00
0.00 0.00 0.00 0.00 0.00 0.00 0.00 0.00 0.00 0.00 0.00 0.00 0.00 0.00 0.00 0.00 0.00 0.00 0.00 0.00 0.00 0.00 0.00 0.00 0.00 0.00 0.00 0.00 0.00 0.00 0.00 0.00 0.00 0.00 0.00 0.00 0.00 0.00 0.00 0.00 0.00 0.00 0.00 0.00 0.00
0.00 0.00 0.00 0.00 0.00 0.00 0.00 0.00 0.00 0.00 0.00 0.00 0.00 0.00 0.00 0.00 0.00 0.00 0.00 0.00 0.00 0.00 0.00 0.00 0.00 0.00 0.00 0.00 0.00 0.00 0.00 0.00 0.00 0.00 0.00 0.00 0.00 0.00 0.00 0.00 0.00 0.00 0.00 0.00 0.00
0.00 0.00 0.00 0.00 0.00 0.00 0.00 0.00 0.00 0.00 0.00 0.00 0.00 0.00 0.00 0.00 0.00 0.00 0.00 0.00 0.00 0.00 0.00 0.00 0.00 0.00 0.00 0.00 0.00 0.00 0.00 0.00 0.00 0.00 0.00 0.00 0.00 0.00 0.00 0.00 0.00 0.00 0.00 0.00 0.00
0.00 0.00 0.00 0.00 0.00 0.00 0.00 0.00 0.00 0.00 0.00 0.00 0.00 0.00 0.00 0.00 0.00 0.00 0.00 0.00 0.00 0.00 0.00 0.00 0.00 0.00 0.00 0.00 0.00 0.00 0.00 0.00 0.00 0.00 0.00 0.00 0.00 0.00 0.00 0.00 0.00 0.00 0.00 0.00 0.00
MSLP
1017.93 1017.76 1017.75 1017.55 1017.34 1017.14 1016.77 1016.60 1016.46 1016.22 1016.25 1016.02 1016.05 1015.98 1015.82 1015.48 1015.34 1015.09 1014.08 1014.10 1014.01 1013.68 1013.54 1014.05 1014.49 1015.60 1015.67 1015.06 1014.54 1013.48 1011.98 1009.77 1008.17 1007.45 1006.75 1007.53 1007.87 1008.29 1008.46 1008.71 1009.58 1010.25 1010.35 1011.14 1013.86
1017.80 1017.64 1017.47 1017.27 1016.97 1016.76 1016.41 1016.23 1016.07 1016.02 1015.82 1015.75 1015.74 1015.78 1015.67 1015.35 1014.72 1013.05 1013.46 1013.76 1013.74 1013.93 1013.95 1013.77 1014.09 1015.45 1016.04 1015.09 1014.45 1013.17 1011.35 1009.60 1008.17 1007.25 1006.99 1007.53 1007.71 1008.20 1008.94 1009.01 1009.60 1010.54 1011.53 1012.53 1014.35
1017.61 1017.47 1017.25 1016.92 1016.60 1016.32 1016.00 1015.79 1015.65 1015.60 1015.58 1015.38 1015.33 1015.40 1015.40 1015.30 1014.10 1011.10 1011.93 1012.76 1012.99 1013.49 1013.64 1013.66 1014.23 1015.39 1015.87 1015.47 1013.83 1012.58 1011.05 1009.76 1008.54 1008.12 1007.55 1007.31 1007.75 1008.16 1008.31 1008.58 1008.79 1009.87 1011.36 1013.39 1014.46
1017.33 1017.14 1016.92 1016.48 1016.18 1015.86 1015.48 1015.27 1015.12 1015.08 1015.05 1014.94 1014.97 1015.10 1015.09 1014.96 1013.10 1009.88 1010.56 1011.39 1012.28 1012.94 1013.20 1013.13 1014.11 1015.00 1015.24 1014.97 1014.09 1012.60 1010.98 1009.97 1008.86 1008.91 1008.44 1007.51 1007.45 1007.77 1007.93 1007.97 1008.25 1009.27 1011.10 1013.41 1014.20
1017.12 1016.86 1016.48 1016.02 1015.69 1015.44 1015.07 1014.72 1014.54 1014.58 1014.51 1014.40 1014.50 1014.71 1014.75 1013.54 1012.06 1010.61 1010.98 1011.41 1011.44 1012.33 1012.13 1012.10 1012.99 1013.62 1014.04 1014.78 1014.50 1012.43 1010.98 1010.06 1009.51 1009.35 1008.66 1008.03 1007.58 1007.48 1007.62 1008.28 1008.53 1009.22 1011.32 1012.96 1013.77
1016.77 1016.45 1016.06 1015.70 1015.28 1015.02 1014.62 1014.23 1013.99 1014.01 1013.97 1014.06 1014.21 1014.35 1014.27 1012.45 1011.41 1010.40 1010.80 1011.11 1010.83 1011.25 1011.25 1011.68 1011.63 1012.68 1014.12 1014.45 1013.98 1012.69 1011.70 1010.49 1009.71 1009.22 1008.81 1008.48 1007.77 1007.72 1007.28 1008.37 1008.84 1010.06 1011.20 1012.41 1012.99
1016.27 1015.99 1015.67 1015.26 1014.90 1014.52 1014.10 1013.84 1013.63 1013.54 1013.58 1013.69 1013.81 1013.91 1013.14 1010.14 1010.13 1009.62 1010.15 1010.47 1010.40 1010.49 1010.66 1011.34 1011.84 1012.23 1013.31 1013.59 1013.42 1012.79 1012.19 1011.06 1009.91 1008.94 1008.53 1008.63 1007.81 1007.56 1007.12 1008.17 1008.96 1009.93 1010.83 1011.87 1012.50
1015.68 1015.42 1015.12 1014.78 1014.40 1013.98 1013.70 1013.31 1013.21 1013.13 1013.08 1013.02 1013.13 1013.28 1011.33 1009.87 1009.92 1009.70 1010.24 1010.10 1010.12 1010.51 1010.50 1010.92 1011.35 1012.34 1012.75 1013.37 1013.21 1013.47 1012.80 1011.10 1009.17 1008.92 1008.52 1008.38 1007.01 1006.85 1006.97 1007.79 1008.58 1009.39 1010.26 1011.31 1012.02
1015.01 1014.68 1014.51 1014.25 1013.95 1013.59 1013.29 1012.95 1012.79 1012.50 1012.21 1012.23 1012.70 1012.68 1010.47 1008.38 1008.51 1007.80 1009.65 1009.56 1009.60 1009.49 1009.14 1010.37 1011.03 1011.83 1012.91 1012.59 1013.73 1013.35 1011.85 1010.46 1009.39 1008.71 1008.41 1007.98 1006.42 1005.44 1006.87 1007.46 1007.90 1008.66 1009.52 1010.56 1011.37
1014.20 1014.03 1013.90 1013.78 1013.57 1013.18 1012.98 1012.60 1011.97 1011.66 1011.71 1011.67 1011.56 1011.94 1009.56 1007.50 1007.49 1007.69 1008.65 1009.18 1009.32 1009.27 1008.89 1010.10 1010.71 1011.30 1011.84 1011.79 1011.11 1011.41 1011.02 1010.11 1009.24 1008.76 1008.41 1007.66 1006.22 1005.13 1006.50 1006.92 1007.06 1007.93 1008.82 1009.66 1010.33
1013.28 1013.34 1013.42 1013.42 1013.22 1012.99 1012.80 1012.12 1011.95 1011.80 1011.82 1011.21 1010.45 1009.50 1007.01 1006.98 1007.06 1007.12 1007.99 1009.39 1008.28 1008.50 1007.50 1008.73 1008.99 1008.73 1010.28 1011.06 1011.15 1010.96 1010.93 1009.74 1009.40 1008.45 1007.98 1007.08 1006.49 1006.04 1006.47 1006.63 1006.74 1007.16 1007.92 1008.63 1009.31
1012.87 1012.94 1013.06 1013.18 1013.04 1012.85 1012.71 1012.31 1012.42 1012.93 1011.58 1010.32 1009.71 1009.33 1008.30 1007.45 1007.15 1007.61 1008.16 1009.30 1007.36 1007.07 1007.45 1008.38 1006.88 1007.36 1009.54 1010.46 1010.47 1010.36 1010.39 1009.39 1009.33 1009.26 1008.25 1007.12 1006.38 1005.99 1006.17 1006.41 1006.23 1006.32 1006.99 1007.87 1008.66
1013.09 1012.91 1013.01 1013.10 1012.99 1012.56 1012.30 1012.48 1012.62 1012.63 1011.96 1009.69 1009.01 1008.34 1007.74 1007.71 1006.83 1006.90 1007.78 1007.59 1007.09 1007.57 1007.89 1007.06 1006.46 1007.49 1009.11 1009.70 1010.34 1010.18 1009.96 1009.86 1009.59 1009.95 1009.03 1007.87 1006.81 1006.14 1006.02 1006.53 1006.51 1006.20 1006.32 1007.01 1007.74
1013.27 1013.15 1013.30 1013.16 1013.14 1012.12 1012.24 1012.65 1012.52 1012.30 1011.62 1009.96 1008.64 1008.48 1007.60 1007.44 1007.80 1006.62 1006.60 1007.03 1007.47 1007.74 1008.04 1007.63 1007.13 1007.23 1008.75 1009.39 1010.56 1010.57 1010.34 1010.21 1010.27 1010.35 1009.49 1008.83 1006.01 1004.88 1005.40 1005.73 1005.89 1005.90 1005.99 1006.23 1007.04
1013.45 1013.42 1013.35 1013.08 1012.80 1012.27 1012.87 1012.66 1012.54 1012.40 1011.44 1009.77 1009.29 1008.31 1007.33 1006.87 1006.90 1006.66 1006.82 1006.80 1007.79 1008.08 1008.71 1009.00 1007.83 1007.67 1008.50 1008.62 1010.48 1010.77 1010.47 1010.81 1011.29 1010.72 1010.38 1010.36 1008.80 1004.45 1004.28 1004.03 1004.54 1005.06 1005.66 1006.08 1006.43
1013.71 1013.40 1013.25 1012.84 1012.81 1012.65 1012.51 1012.63 1012.50 1012.39 1010.42 1009.60 1009.34 1008.37 1007.49 1006.87 1006.85 1007.05 1007.36 1007.09 1008.06 1008.81 1008.89 1009.08 1008.89 1009.10 1009.60 1010.01 1010.67 1011.24 1011.15 1012.11 1012.62 1011.83 1010.67 1009.73 1008.59 1004.91 1002.83 1002.56 1003.36 1003.98 1004.57 1005.19 1005.99
1013.78 1013.38 1013.28 1013.08 1012.82 1012.65 1012.52 1012.49 1012.32 1011.51 1010.82 1010.37 1009.84 1008.71 1007.78 1007.10 1007.08 1007.19 1007.54 1008.14 1008.50 1008.92 1009.61 1010.10 1010.42 1010.27 1010.07 1011.45 1012.02 1011.65 1011.33 1012.90 1013.22 1011.94 1009.61 1008.50 1008.01 1003.91 1002.12 1002.17 1002.29 1002.71 1003.61 1004.50 1005.27
1013.64 1013.02 1012.67 1012.67 1012.68 1012.61 1012.25 1011.99 1011.84 1011.71 1011.41 1011.07 1010.48 1009.55 1008.59 1007.99 1007.48 1007.30 1007.37 1007.82 1008.37 1008.79 1009.61 1010.09 1011.28 1010.77 1010.96 1011.16 1011.27 1011.40 1011.03 1011.20 1010.41 1009.66 1009.29 1008.84 1005.82 1003.54 1003.24 1002.65 1002.53 1002.58 1002.88 1003.81 1004.74
1013.42 1012.48 1012.41 1012.32 1012.66 1012.52 1011.97 1012.12 1012.48 1012.59 1012.49 1011.81 1010.78 1010.16 1009.40 1008.73 1008.38 1007.76 1007.93 1008.22 1008.70 1009.23 1009.42 1009.67 1010.95 1011.31 1011.29 1011.06 1011.29 1011.96 1011.02 1010.94 1009.65 1009.13 1007.98 1006.67 1004.79 1004.01 1003.24 1002.78 1003.18 1003.58 1004.09 1004.40 1004.38
1013.28 1012.41 1011.92 1012.25 1012.30 1012.06 1012.13 1012.83 1013.07 1013.00 1012.77 1012.22 1011.16 1010.22 1009.65 1009.40 1009.06 1008.81 1008.67 1008.60 1009.25 1009.27 1009.28 1010.05 1010.98 1011.64 1011.69 1011.51 1012.09 1011.65 1011.00 1010.94 1010.30 1009.05 1006.91 1004.46 1003.64 1002.50 1003.08 1002.99 1003.31 1003.95 1004.52 1005.08 1005.55
1013.11 1012.37 1011.86 1012.01 1011.95 1011.75 1012.86 1013.52 1013.34 1012.84 1012.83 1012.44 1011.62 1010.86 1010.24 1009.89 1009.64 1009.26 1009.11 1009.30 1008.73 1009.25 1009.76 1010.23 1010.30 1012.34 1012.18 1011.96 1011.88 1012.13 1011.64 1011.00 1009.70 1008.49 1006.46 1004.67 1003.45 1003.00 1002.48 1002.76 1003.43 1004.22 1004.93 1005.52 1006.41
1013.24 1012.79 1011.93 1011.64 1012.32 1013.36 1013.69 1013.79 1013.22 1012.51 1012.57 1012.42 1012.08 1011.30 1010.72 1010.37 1010.10 1009.90 1009.73 1009.74 1009.69 1009.68 1010.35 1010.86 1011.05 1011.97 1012.28 1012.35 1012.07 1011.12 1011.00 1010.20 1008.99 1008.72 1007.24 1006.24 1004.18 1003.90 1003.70 1004.17 1004.79 1004.78 1005.59 1005.96 1006.48
1013.62 1012.99 1011.97 1011.78 1013.12 1013.98 1014.28 1013.78 1013.24 1012.67 1012.37 1012.03 1011.67 1011.77 1011.25 1010.88 1010.75 1010.60 1010.63 1010.55 1010.38 1010.31 1010.59 1010.97 1011.46 1011.90 1012.50 1012.70 1012.40 1011.36 1010.83 1009.86 1008.95 1008.79 1007.10 1006.12 1004.33 1004.53 1004.48 1004.81 1005.37 1006.04 1006.39 1006.86 1007.24
1014.18 1014.32 1013.43 1013.55 1014.35 1014.27 1014.30 1014.37 1013.52 1012.84 1012.52 1012.22 1011.87 1011.65 1011.54 1011.40 1011.23 1011.24 1011.24 1011.03 1010.82 1010.92 1011.12 1011.39 1011.34 1011.18 1010.73 1010.49 1010.32 1010.75 1010.42 1009.83 1009.37 1008.53 1006.91 1005.83 1004.73 1004.61 1004.78 1004.93 1005.46 1006.41 1006.85 1007.46 1008.01
1015.26 1016.07 1016.51 1015.85 1015.52 1014.96 1014.33 1014.20 1013.51 1013.17 1012.67 1012.25 1011.96 1011.95 1011.78 1011.81 1011.85 1011.75 1011.58 1011.41 1011.39 1011.49 1011.68 1011.85 1011.52 1011.62 1011.33 1010.94 1010.27 1009.84 1009.69 1009.60 1008.80 1008.06 1007.03 1006.10 1005.63 1004.92 1005.30 1005.44 1006.10 1006.66 1007.38 1007.96 1008.43
1015.66 1015.98 1016.70 1016.35 1015.91 1015.19 1014.71 1014.47 1014.11 1013.61 1013.11 1012.83 1012.80 1012.68 1012.29 1012.52 1012.50 1012.08 1011.88 1011.74 1011.66 1011.84 1011.74 1011.99 1011.92 1011.72 1011.59 1011.24 1010.67 1009.90 1009.02 1009.02 1008.63 1008.15 1007.40 1006.76 1006.46 1006.18 1005.95 1006.28 1006.84 1007.13 1007.60 1008.15 1008.54
1015.89 1016.10 1015.80 1016.40 1016.04 1015.26 1015.23 1014.91 1014.46 1014.18 1014.00 1013.71 1013.52 1013.35 1013.45 1013.55 1013.18 1012.56 1012.46 1012.35 1012.13 1011.89 1011.93 1012.03 1011.88 1011.78 1011.55 1011.35 1010.57 1010.09 1008.69 1008.23 1008.20 1007.93 1007.63 1007.07 1006.70 1006.64 1006.52 1006.46 1006.65 1007.00 1007.44 1008.15 1008.50
Thickness
5566 5565 5562 5561 5562 5562 5563 5562 5561 5563 5563 5564 5563 5564 5567 5574 5577 5587 5601 5605 5613 5622 5627 5632 5633 5626 5631 5637 5647 5661 5653 5667 5691 5699 5715 5722 5716 5724 5732 5725 5723 5723 5727 5729 5710
5557 5556 5555 5554 5554 5553 5553 5551 5551 5550 5552 5551 5549 5549 5553 5556 5569 5593 5597 5596 5603 5607 5613 5620 5620 5618 5612 5631 5639 5643 5653 5674 5704 5716 5715 5717 5718 5717 5712 5716 5715 5714 5718 5716 5704
5549 5546 5546 5546 5545 5543 5542 5541 5539 5537 5534 5534 5533 5531 5533 5537 5552 5597 5594 5593 5599 5600 5606 5612 5612 5608 5604 5616 5639 5647 5650 5682 5697 5707 5716 5716 5713 5720 5715 5711 5722 5715 5715 5703 5698
5541 5540 5538 5538 5536 5533 5533 5530 5525 5520 5516 5513 5510 5503 5506 5514 5534 5587 5590 5590 5590 5592 5595 5604 5602 5599 5602 5605 5630 5634 5663 5679 5695 5695 5699 5710 5720 5715 5720 5724 5736 5732 5721 5700 5698
5532 5531 5529 5529 5527 5522 5519 5516 5509 5499 5489 5481 5474 5469 5471 5486 5518 5551 5566 5571 5581 5586 5591 5604 5603 5607 5604 5610 5615 5634 5657 5675 5685 5687 5696 5707 5710 5714 5717 5724 5732 5731 5714 5700 5700
5525 5523 5521 5519 5516 5510 5505 5497 5487 5473 5461 5451 5443 5438 5437 5448 5494 5522 5542 5557 5574 5584 5589 5601 5611 5616 5606 5605 5611 5636 5647 5665 5676 5684 5691 5691 5704 5708 5721 5722 5722 5715 5710 5704 5705
5520 5516 5513 5509 5505 5498 5489 5476 5463 5452 5447 5443 5439 5434 5435 5471 5480 5500 5523 5546 5568 5581 5588 5597 5604 5602 5605 5608 5618 5631 5628 5649 5666 5681 5686 5690 5689 5696 5722 5718 5713 5711 5710 5706 5707
5515 5510 5505 5501 5496 5487 5473 5461 5453 5449 5448 5444 5440 5432 5441 5462 5465 5477 5500 5534 5559 5572 5586 5594 5599 5593 5600 5601 5611 5609 5617 5618 5669 5674 5683 5684 5684 5707 5722 5716 5711 5713 5711 5706 5705
5511 5507 5500 5494 5486 5475 5463 5455 5451 5452 5451 5445 5436 5429 5446 5468 5472 5496 5500 5530 5555 5572 5583 5586 5590 5586 5584 5601 5590 5598 5607 5627 5646 5670 5673 5676 5690 5719 5715 5712 5712 5713 5712 5707 5706
5508 5503 5497 5487 5477 5467 5457 5455 5457 5457 5452 5447 5441 5433 5454 5477 5480 5494 5507 5526 5550 5568 5577 5574 5574 5577 5579 5591 5598 5604 5614 5628 5634 5659 5665 5669 5693 5714 5708 5710 5716 5714 5712 5709 5709
5507 5501 5493 5481 5470 5460 5457 5460 5460 5457 5448 5446 5449 5452 5481 5480 5487 5501 5517 5522 5545 5553 5572 5573 5585 5589 5594 5598 5612 5623 5621 5634 5649 5663 5664 5673 5684 5697 5701 5706 5709 5713 5713 5712 5712
5504 5498 5488 5475 5464 5458 5459 5461 5456 5444 5452 5455 5457 5456 5466 5480 5492 5500 5514 5518 5552 5566 5567 5571 5594 5618 5605 5600 5605 5616 5617 5634 5639 5643 5660 5673 5679 5695 5696 5698 5710 5717 5715 5712 5709
5497 5492 5482 5470 5461 5462 5465 5460 5454 5448 5452 5470 5473 5476 5484 5483 5502 5510 5516 5540 5558 5562 5563 5588 5605 5608 5595 5594 5596 5603 5616 5627 5635 5627 5646 5658 5665 5678 5691 5691 5698 5710 5717 5715 5711
5490 5484 5474 5465 5463 5468 5466 5458 5455 5455 5465 5476 5484 5481 5491 5495 5493 5519 5526 5542 5548 5560 5567 5580 5588 5599 5591 5593 5593 5596 5616 5625 5632 5624 5629 5648 5659 5684 5687 5685 5691 5701 5709 5716 5715
5484 5476 5469 5462 5465 5467 5460 5458 5458 5459 5494 5482 5475 5486 5496 5511 5515 5520 5528 5539 5543 5546 5553 5552 5577 5591 5593 5607 5594 5597 5612 5611 5608 5621 5617 5604 5623 5684 5695 5690 5691 5699 5704 5710 5715
5478 5473 5466 5463 5462 5463 5463 5460 5461 5475 5517 5488 5477 5489 5506 5515 5524 5522 5522 5538 5533 5540 5546 5551 5562 5573 5579 5587 5588 5581 5593 5587 5588 5594 5600 5611 5620 5662 5689 5701 5704 5707 5710 5712 5711
5473 5470 5464 5457 5460 5461 5463 5465 5479 5502 5479 5485 5481 5493 5508 5523 5524 5528 5530 5530 5533 5538 5538 5535 5540 5553 5573 5562 5558 5574 5587 5575 5576 5578 5611 5628 5619 5668 5702 5705 5714 5717 5716 5714 5712
5472 5472 5467 5459 5457 5460 5466 5475 5495 5479 5478 5476 5479 5489 5505 5511 5522 5530 5536 5533 5535 5546 5540 5554 5548 5551 5560 5566 5571 5575 5586 5583 5594 5601 5612 5603 5617 5654 5685 5700 5711 5718 5722 5719 5711
5470 5474 5467 5462 5456 5459 5475 5485 5474 5468 5464 5469 5482 5494 5501 5505 5513 5530 5534 5535 5535 5536 5545 5553 5542 5537 5553 5562 5570 5562 5570 5579 5594 5583 5618 5623 5645 5661 5679 5686 5692 5695 5697 5701 5713
5470 5473 5472 5461 5457 5463 5457 5462 5456 5457 5459 5464 5494 5498 5513 5504 5513 5513 5522 5526 5525 5534 5542 5543 5545 5523 5539 5552 5551 5565 5578 5570 5575 5584 5607 5647 5648 5666 5659 5676 5685 5685 5687 5689 5693
5471 5469 5471 5462 5459 5464 5456 5448 5450 5466 5462 5465 5477 5494 5504 5506 5507 5513 5517 5516 5539 5531 5534 5541 5552 5523 5528 5547 5552 5550 5554 5564 5585 5588 5615 5632 5646 5661 5676 5678 5680 5679 5677 5678 5674
5467 5449 5468 5464 5446 5428 5448 5442 5461 5472 5467 5467 5467 5477 5491 5499 5501 5507 5512 5514 5525 5534 5532 5527 5537 5535 5533 5528 5535 5565 5563 5572 5584 5577 5594 5594 5637 5640 5651 5655 5653 5666 5664 5670 5670
5444 5461 5468 5465 5443 5436 5427 5448 5460 5466 5470 5474 5480 5472 5481 5491 5504 5498 5501 5504 5515 5522 5523 5524 5523 5536 5530 5525 5519 5543 5556 5570 5583 5573 5590 5600 5635 5627 5635 5642 5639 5643 5649 5653 5654
5451 5441 5452 5446 5437 5435 5431 5423 5435 5463 5467 5471 5474 5480 5478 5483 5488 5497 5494 5500 5508 5513 5513 5513 5516 5535 5561 5556 5556 5543 5552 5561 5567 5566 5592 5602 5623 5629 5628 5633 5635 5631 5634 5636 5636
5434 5423 5413 5433 5421 5429 5437 5436 5447 5441 5462 5470 5475 5475 5480 5479 5480 5483 5491 5495 5499 5502 5502 5499 5517 5509 5516 5535 5544 5555 5553 5552 5560 5574 5579 5598 5601 5619 5616 5622 5622 5621 5620 5621 5623
5426 5429 5415 5416 5421 5432 5429 5426 5432 5441 5451 5458 5456 5463 5475 5471 5474 5481 5484 5488 5495 5494 5499 5496 5508 5509 5509 5521 5530 5542 5556 5555 5561 5566 5573 5579 5581 5595 5601 5602 5606 5609 5608 5608 5612
5426 5425 5431 5413 5414 5433 5421 5422 5428 5434 5440 5443 5447 5451 5453 5455 5460 5472 5472 5475 5482 5492 5494 5496 5498 5508 5522 5507 5528 5531 5546 5556 5558 5563 5567 5565 5581 5587 5587 5596 5598 5602 5602 5601 5602